Location: Chequamegon National Forest
(46.1070°N, 90.8420°W)
Time: 10:53:39
(UTC-06:00)

Amateur Radio Satellites - All Passes

Search period start: 26 February 2017 10:23
Search period end: 27 February 2017 10:23
Location: Chequamegon National Forest, 46.1070°N, 90.8420°W

Satellite Date Start Highest point End Downlink Frequencies (MHz)
Time Altitude Azimuth
ESTCUBE 1 26 Feb 10:25:15 10:27:37 14° 89° (E) 10:30:00 437.505/2401.250
DUCHIFAT 1 26 Feb 10:28:24 10:32:20 40° 70° (ENE) 10:36:18 145.980
ZACube-1 26 Feb 10:36:17 10:38:37 14° 301° (WNW) 10:40:55 437.345
FO-29 26 Feb 10:39:35 10:46:33 50° 263° (W) 10:54:09 435.910
EO-79 26 Feb 10:40:12 10:44:22 63° 74° (ENE) 10:48:36 145.935-145.965
HO-68 26 Feb 10:48:06 10:50:00 11° 318° (NW) 10:51:56 435.675
YUBILEINY 26 Feb 10:50:14 10:59:03 74° 281° (WNW) 11:07:53 435.215
AO-85 26 Feb 10:51:03 10:53:22 15° 34° (NNE) 10:55:40 145.980
ISS 26 Feb 10:54:35 10:57:33 30° 1° (N) 11:00:31 437.550
NANOSAT C BR1 26 Feb 10:56:27 11:00:40 87° 75° (ENE) 11:04:57 145.865
POLYITAN 1 26 Feb 10:58:00 11:02:15 84° 257° (WSW) 11:06:34 437.675
QB50P2 26 Feb 11:01:03 11:05:17 73° 257° (WSW) 11:09:35 145.880/145.840
Gurwin Techsat 1B 26 Feb 11:15:14 11:17:09 12° 53° (NE) 11:19:05 435.225
Tancredo 1 26 Feb 11:17:46 11:20:42 30° 6° (N) 11:23:38 437.200
DELFI C3 26 Feb 11:18:20 11:20:16 13° 298° (WNW) 11:22:12 145.870
BUGSAT 1 26 Feb 11:20:55 11:24:52 51° 72° (ENE) 11:28:53 437.445
LO-87 26 Feb 11:39:45 11:43:09 41° 288° (WNW) 11:46:34 145.935 - 145.965
AIST 2D 26 Feb 11:50:15 11:51:43 12° 270° (W) 11:53:11 435.315
Oscar 19 26 Feb 11:57:05 12:01:54 41° 67° (ENE) 12:06:42 437.125/150
ESTCUBE 1 26 Feb 12:00:26 12:04:53 65° 287° (WNW) 12:09:18 437.505/2401.250
50 SAT 26 Feb 12:03:39 12:06:44 29° 97° (E) 12:09:49 437.505
DUCHIFAT 1 26 Feb 12:05:00 12:08:10 20° 267° (W) 12:11:22 145.980
DX 1 26 Feb 12:09:00 12:12:33 24° 94° (E) 12:16:06 434.975-435.025
EO-79 26 Feb 12:18:30 12:20:35 13° 271° (W) 12:22:39 145.935-145.965
UKube-1 26 Feb 12:18:53 12:22:17 22° 94° (E) 12:25:39 .
SPROUT 26 Feb 12:20:08 12:24:24 59° 100° (E) 12:28:40 437.525
VELOX 1 26 Feb 12:20:42 12:25:07 71° 102° (ESE) 12:29:32 145.980
AO-85 26 Feb 12:30:25 12:34:21 89° 58° (ENE) 12:38:18 145.980
ISS 26 Feb 12:31:13 12:34:28 53° 21° (NNE) 12:37:41 437.550
ITAMSAT 1 26 Feb 12:36:38 12:38:45 12° 54° (NE) 12:40:52 435.822/435.867
AO-7 26 Feb 12:49:16 12:55:54 27° 50° (NE) 13:02:31 .
Gurwin Techsat 1B 26 Feb 12:50:52 12:56:09 70° 72° (ENE) 13:01:27 435.225
YUBILEINY 26 Feb 12:51:56 12:57:36 18° 305° (NW) 13:03:17 435.215
Tancredo 1 26 Feb 12:54:04 12:57:19 76° 26° (NNE) 13:00:32 437.200
BEESAT 3 26 Feb 12:57:31 13:00:19 18° 37° (NE) 13:03:07 437.485
BUGSAT 1 26 Feb 12:58:09 13:00:33 15° 269° (W) 13:02:59 437.445
Oscar 19 26 Feb 13:36:56 13:41:20 28° 266° (W) 13:45:44 437.125/150
50 SAT 26 Feb 13:37:11 13:39:41 19° 294° (WNW) 13:42:11 437.505
BEESAT 2 26 Feb 13:38:19 13:41:19 19° 38° (NE) 13:44:17 435.950
DX 1 26 Feb 13:44:50 13:48:49 36° 292° (WNW) 13:52:48 434.975-435.025
UKube-1 26 Feb 13:54:25 13:58:26 38° 291° (WNW) 14:02:26 .
SPROUT 26 Feb 13:57:13 13:59:53 16° 298° (WNW) 14:02:32 437.525
VELOX 1 26 Feb 13:58:37 14:01:02 15° 300° (WNW) 14:03:27 145.980
ISS 26 Feb 14:07:53 14:10:48 29° 219° (SW) 14:13:42 437.550
ITAMSAT 1 26 Feb 14:12:07 14:17:19 74° 73° (ENE) 14:22:33 435.822/435.867
ITUPSAT 1 26 Feb 14:25:52 14:30:16 34° 97° (E) 14:34:36 437.325
PCSat 26 Feb 14:28:44 14:30:38 12° 102° (ESE) 14:32:33 145.827
Tancredo 1 26 Feb 14:30:57 14:33:16 18° 223° (SW) 14:35:33 437.200
BEESAT 26 Feb 14:31:32 14:36:02 39° 98° (E) 14:40:30 436.000
Gurwin Techsat 1B 26 Feb 14:33:11 14:36:37 17° 270° (W) 14:40:05 435.225
BEESAT 3 26 Feb 14:34:22 14:38:24 75° 236° (SW) 14:42:23 437.485
AO-7 26 Feb 14:39:24 14:47:48 85° 253° (WSW) 14:56:13 .
MOZHAYETS 4 26 Feb 14:41:53 14:45:16 20° 91° (E) 14:48:38
BEESAT 2 26 Feb 15:15:27 15:19:30 67° 238° (WSW) 15:23:30 435.950
CUTE-I 26 Feb 15:33:56 15:35:23 11° 52° (NE) 15:36:51 437.470
CUBESAT XI-V 26 Feb 15:45:14 15:47:53 15° 89° (E) 15:50:30 437.345
ITAMSAT 1 26 Feb 15:54:14 15:57:21 16° 271° (W) 16:00:29 435.822/435.867
LilacSat-2 26 Feb 16:02:26 16:04:07 13° 61° (ENE) 16:05:48 437.200
ITUPSAT 1 26 Feb 16:03:49 16:08:01 30° 295° (WNW) 16:12:10 437.325
PCSat 26 Feb 16:07:42 16:13:07 78° 120° (ESE) 16:18:34 145.827
BEESAT 26 Feb 16:09:39 16:13:39 27° 296° (WNW) 16:17:37 436.000
MOZHAYETS 4 26 Feb 16:18:14 16:22:41 48° 289° (WNW) 16:27:05
RS-15 26 Feb 16:26:27 16:37:27 46° 109° (ESE) 16:48:49 29.354- 29.394
AO-7 26 Feb 16:36:09 16:41:44 19° 271° (W) 16:47:21 .
KKS-1 26 Feb 16:39:05 16:43:34 77° 102° (ESE) 16:48:03 437.445
KAITUO 1B 26 Feb 16:49:51 16:53:11 30° 69° (ENE) 16:56:34 145.475/437.950
DOVE 4 26 Feb 16:55:58 16:59:57 48° 72° (ENE) 17:04:01 437.250
XW-2F 26 Feb 16:56:35 17:00:13 42° 71° (ENE) 17:03:53 145.980 - 146.000
NO-84 26 Feb 17:00:08 17:03:22 72° 141° (SE) 17:06:55 435.350 FM
XW-2D 26 Feb 17:01:58 17:05:43 51° 73° (ENE) 17:09:29 145.860 - 145.880
XW-2B 26 Feb 17:07:01 17:10:48 57° 74° (ENE) 17:14:36 145.730 - 145.750
M-CUBED/EXP-1 PRIME 26 Feb 17:09:04 17:12:25 28° 103° (ESE) 17:15:56 437.505
CUTE-I 26 Feb 17:09:08 17:14:24 64° 71° (ENE) 17:19:44 437.470
STARS 26 Feb 17:09:16 17:13:43 73° 103° (ESE) 17:18:09 437.465
XW-2C 26 Feb 17:15:39 17:19:30 74° 74° (ENE) 17:23:22 145.795 - 145.815
CUBESAT XI-V 26 Feb 17:21:08 17:25:42 64° 287° (WNW) 17:30:14 437.345
NUDT-PHONESAT 26 Feb 17:22:35 17:26:20 73° 75° (ENE) 17:30:08 437.300
LilacSat-2 26 Feb 17:34:03 17:37:54 65° 259° (W) 17:41:47 437.200
HO-68 26 Feb 17:40:52 17:47:22 39° 61° (ENE) 17:53:54 435.675
SEEDS 26 Feb 17:51:40 17:54:23 17° 63° (ENE) 17:57:05 437.485
PCSat 26 Feb 17:52:51 17:57:08 23° 321° (NW) 18:01:26 145.827
UWE-3 26 Feb 18:05:28 18:07:10 12° 57° (ENE) 18:08:54 435.000/436.395/437.385
XW-2A 26 Feb 18:13:15 18:16:34 53° 74° (ENE) 18:19:56 145.665 - 145.685
KKS-1 26 Feb 18:17:15 18:19:33 14° 301° (WNW) 18:21:51 437.445
STRAND 1 26 Feb 18:21:01 18:24:21 17° 90° (E) 18:27:41 437.568
ZACube-1 26 Feb 18:23:42 18:24:59 11° 57° (ENE) 18:26:15 437.345
KAITUO 1B 26 Feb 18:24:14 18:27:15 22° 266° (W) 18:30:17 145.475/437.950
CUTE 1.7 + AOD 2 26 Feb 18:30:55 18:35:08 59° 74° (ENE) 18:39:21 437.475
XW-2F 26 Feb 18:32:08 18:34:35 16° 269° (W) 18:37:03 145.980 - 146.000
DOVE 4 26 Feb 18:35:27 18:38:00 16° 270° (W) 18:40:35 437.250
RS-15 26 Feb 18:37:32 18:49:33 66° 315° (NW) 19:01:56 29.354- 29.394
XW-2D 26 Feb 18:38:16 18:40:14 13° 270° (W) 18:42:12 145.860 - 145.880
NO-84 26 Feb 18:38:18 18:41:21 28° 343° (NNW) 18:44:38 435.350 FM
M-CUBED/EXP-1 PRIME 26 Feb 18:43:36 18:46:50 27° 297° (WNW) 18:50:15 437.505
XW-2B 26 Feb 18:43:45 18:45:22 12° 271° (W) 18:46:59 145.730 - 145.750
STARS 26 Feb 18:47:07 18:49:31 14° 301° (WNW) 18:51:54 437.465
CUTE-I 26 Feb 18:51:10 18:54:54 19° 269° (W) 18:58:42 437.470
YUBILEINY 26 Feb 19:02:22 19:07:09 15° 52° (NE) 19:11:53 435.215
CUBEBUG 2 26 Feb 19:04:11 19:08:36 62° 73° (ENE) 19:13:11 437.445
AO-73 26 Feb 19:08:23 19:12:06 26° 66° (ENE) 19:15:54 145.935
AAUSAT CUBESAT 2 26 Feb 19:10:23 19:14:25 53° 73° (ENE) 19:18:29 437.432
Oscar 11 26 Feb 19:13:27 19:17:00 25° 66° (ENE) 19:20:34 .
SEEDS 26 Feb 19:25:31 19:29:40 54° 261° (W) 19:33:49 437.485
HO-68 26 Feb 19:28:06 19:34:58 48° 260° (W) 19:41:53 435.675
UWE-3 26 Feb 19:38:21 19:42:51 87° 76° (ENE) 19:47:30 435.000/436.395/437.385
XW-2A 26 Feb 19:49:12 19:49:41 10° 271° (W) 19:50:11 145.665 - 145.685
ZACube-1 26 Feb 19:55:58 20:00:27 81° 74° (ENE) 20:05:03 437.345
STRAND 1 26 Feb 19:58:53 20:04:02 67° 288° (WNW) 20:09:08 437.568
CUTE 1.7 + AOD 2 26 Feb 20:09:01 20:11:21 14° 271° (W) 20:13:42 437.475
NO-84 26 Feb 20:17:00 20:19:56 21° 5° (N) 20:23:03 435.350 FM
DELFI C3 26 Feb 20:29:39 20:33:27 47° 72° (ENE) 20:37:16 145.870
CUBEBUG 2 26 Feb 20:43:01 20:45:41 15° 272° (W) 20:48:23 437.445
AO-73 26 Feb 20:44:02 20:48:10 37° 264° (W) 20:52:25 145.935
AAUSAT CUBESAT 2 26 Feb 20:47:46 20:50:13 15° 270° (W) 20:52:39 437.432
Oscar 11 26 Feb 20:48:58 20:52:58 35° 263° (W) 20:57:00 .
RS-15 26 Feb 20:54:05 21:04:59 34° 345° (NNW) 21:15:57 29.354- 29.394
YUBILEINY 26 Feb 20:57:20 21:06:02 65° 77° (ENE) 21:14:39 435.215
PRISM 26 Feb 21:04:11 21:07:47 29° 97° (E) 21:11:22 437.425
SO-50 26 Feb 21:04:57 21:08:35 23° 114° (ESE) 21:12:12 436.795
UWE-3 26 Feb 21:18:56 21:20:00 11° 274° (W) 21:21:03 435.000/436.395/437.385
ESTCUBE 1 26 Feb 21:26:58 21:30:06 19° 62° (ENE) 21:33:16 437.505/2401.250
ZACube-1 26 Feb 21:35:48 21:37:20 12° 273° (W) 21:38:54 437.345
STRAND 1 26 Feb 21:40:48 21:42:15 11° 307° (NW) 21:43:41 437.568
TIGRISAT 26 Feb 21:42:51 21:47:09 34° 96° (E) 21:51:22 435.000
UNISAT 6 26 Feb 21:43:00 21:47:22 36° 97° (E) 21:51:40 437.425
O/OREOS (USA 219) 26 Feb 21:45:33 21:49:19 27° 104° (ESE) 21:53:08 437.305
FO-29 26 Feb 21:47:15 21:53:39 29° 89° (E) 21:59:32 435.910
VELOX 1 26 Feb 21:47:37 21:48:44 11° 57° (ENE) 21:49:49 145.980
NO-84 26 Feb 21:54:41 21:58:23 40° 25° (NNE) 22:02:22 435.350 FM
DELFI C3 26 Feb 22:06:10 22:08:31 15° 269° (W) 22:10:53 145.870
LO-87 26 Feb 22:17:51 22:21:22 73° 258° (WSW) 22:24:56 145.935 - 145.965
PRISM 26 Feb 22:39:34 22:42:59 26° 293° (WNW) 22:46:24 437.425
NANOSAT C BR1 26 Feb 22:40:12 22:41:48 12° 88° (E) 22:43:23 145.865
50 SAT 26 Feb 22:40:32 22:43:03 19° 66° (ENE) 22:45:34 437.505
POLYITAN 1 26 Feb 22:41:48 22:44:00 14° 89° (E) 22:46:11 437.675
SO-50 26 Feb 22:44:11 22:48:46 53° 312° (NW) 22:53:17 436.795
QB50P2 26 Feb 22:44:30 22:47:07 16° 90° (E) 22:49:43 145.880/145.840
YUBILEINY 26 Feb 22:54:57 23:02:12 31° 278° (W) 23:09:26 435.215
ESTCUBE 1 26 Feb 23:02:07 23:06:32 53° 259° (W) 23:10:58 437.505/2401.250
DX 1 26 Feb 23:06:46 23:10:31 29° 66° (ENE) 23:14:16 434.975-435.025
PCSat 26 Feb 23:10:17 23:14:37 23° 39° (NE) 23:18:55 145.827
AIST 2D 26 Feb 23:10:36 23:14:01 42° 98° (E) 23:17:24 435.315
RS-15 26 Feb 23:10:48 23:22:01 37° 20° (NNE) 23:32:59 29.354- 29.394
SPROUT 26 Feb 23:15:36 23:19:47 60° 73° (ENE) 23:24:00 437.525
UKube-1 26 Feb 23:15:38 23:19:13 27° 66° (ENE) 23:22:50 .
TIGRISAT 26 Feb 23:19:39 23:23:44 30° 294° (WNW) 23:27:46 435.000
UNISAT 6 26 Feb 23:19:56 23:23:56 28° 294° (WNW) 23:27:53 437.425
VELOX 1 26 Feb 23:20:04 23:24:27 84° 75° (ENE) 23:28:51 145.980
O/OREOS (USA 219) 26 Feb 23:24:29 23:28:36 35° 303° (WNW) 23:32:46 437.305
FO-29 26 Feb 23:31:37 23:39:14 65° 290° (WNW) 23:46:08 435.910
NO-84 26 Feb 23:32:15 23:36:11 48° 222° (SW) 23:40:21 435.350 FM
DUCHIFAT 1 26 Feb 23:45:02 23:49:13 51° 100° (E) 23:53:22 145.980
EO-79 26 Feb 23:57:48 00:02:07 84° 100° (E) 00:06:24 145.935-145.965
Oscar 19 27 Feb 00:08:22 00:09:49 11° 86° (E) 00:11:15 437.125/150
50 SAT 27 Feb 00:12:52 00:16:00 30° 263° (W) 00:19:08 437.505
NANOSAT C BR1 27 Feb 00:13:44 00:18:01 72° 286° (WNW) 00:22:16 145.865
POLYITAN 1 27 Feb 00:15:56 00:20:13 63° 287° (WNW) 00:24:27 437.675
QB50P2 27 Feb 00:19:02 00:23:15 54° 288° (WNW) 00:27:25 145.880/145.840
SO-50 27 Feb 00:27:51 00:30:14 14° 333° (NNW) 00:32:37 436.795
BUGSAT 1 27 Feb 00:35:01 00:39:16 63° 102° (ESE) 00:43:29 437.445
DX 1 27 Feb 00:42:52 00:46:39 29° 264° (W) 00:50:28 434.975-435.025
AIST 2D 27 Feb 00:44:51 00:46:54 15° 296° (WNW) 00:48:57 435.315
UKube-1 27 Feb 00:51:16 00:55:09 32° 263° (W) 00:59:03 .
PCSat 27 Feb 00:53:10 00:58:38 78° 240° (WSW) 01:04:03 145.827
SPROUT 27 Feb 00:53:51 00:56:06 14° 271° (W) 00:58:22 437.525
VELOX 1 27 Feb 01:00:47 01:01:30 10° 272° (W) 01:02:13 145.980
Gurwin Techsat 1B 27 Feb 01:05:09 01:09:18 22° 92° (E) 01:13:24 435.225
FO-29 27 Feb 01:18:17 01:22:44 17° 312° (NW) 01:27:01 435.910
DUCHIFAT 1 27 Feb 01:21:39 01:24:31 18° 297° (WNW) 01:27:24 145.980
RS-15 27 Feb 01:24:30 01:36:57 75° 50° (NE) 01:48:54 29.354- 29.394
ITUPSAT 1 27 Feb 01:34:44 01:39:25 53° 71° (ENE) 01:44:07 437.325
EO-79 27 Feb 01:35:36 01:37:14 12° 301° (WNW) 01:38:52 145.935-145.965
BEESAT 27 Feb 01:40:04 01:44:46 61° 71° (ENE) 01:49:31 436.000
Oscar 19 27 Feb 01:44:45 01:49:55 84° 105° (ESE) 01:55:03 437.125/150
MOZHAYETS 4 27 Feb 01:45:55 01:49:46 26° 65° (ENE) 01:53:38
KKS-1 27 Feb 02:05:58 02:07:47 12° 58° (ENE) 02:09:37 437.445
BUGSAT 1 27 Feb 02:11:43 02:14:08 15° 299° (WNW) 02:16:34 437.445
ITAMSAT 1 27 Feb 02:23:09 02:27:06 21° 92° (E) 02:31:02 435.822/435.867
STARS 27 Feb 02:35:22 02:36:43 11° 57° (ENE) 02:38:03 437.465
AO-7 27 Feb 02:38:52 02:45:43 28° 93° (E) 02:52:31 .
PCSat 27 Feb 02:39:13 02:41:05 12° 258° (WSW) 02:42:58 145.827
Gurwin Techsat 1B 27 Feb 02:44:22 02:49:33 54° 290° (WNW) 02:54:44 435.225
AO-85 27 Feb 02:48:34 02:51:11 15° 112° (ESE) 02:53:44 145.980
CUBESAT XI-V 27 Feb 02:50:41 02:54:08 21° 63° (ENE) 02:57:36 437.345
ITUPSAT 1 27 Feb 03:14:06 03:17:33 19° 268° (W) 03:21:02 437.325
BEESAT 27 Feb 03:19:52 03:22:58 17° 269° (W) 03:26:04 436.000
MOZHAYETS 4 27 Feb 03:22:27 03:26:46 38° 263° (W) 03:31:07
Oscar 19 27 Feb 03:25:36 03:28:34 16° 303° (WNW) 03:31:31 437.125/150
RS-15 27 Feb 03:37:50 03:48:31 38° 254° (WSW) 03:58:51 29.354- 29.394
KKS-1 27 Feb 03:39:15 03:43:40 86° 251° (WSW) 03:48:09 437.445
SO-50 27 Feb 03:53:46 03:55:31 12° 24° (NNE) 03:57:15 436.795
M-CUBED/EXP-1 PRIME 27 Feb 03:57:56 04:01:05 49° 67° (ENE) 04:04:17 437.505
ITAMSAT 1 27 Feb 04:01:47 04:06:55 56° 290° (WNW) 04:12:01 435.822/435.867
STARS 27 Feb 04:07:58 04:12:20 87° 81° (E) 04:16:46 437.465
CUBESAT XI-V 27 Feb 04:26:40 04:31:11 49° 261° (W) 04:35:43 437.345
AO-85 27 Feb 04:26:43 04:31:10 69° 307° (NW) 04:35:21 145.980
AO-7 27 Feb 04:30:54 04:39:12 73° 293° (WNW) 04:47:26 .
DOVE 4 27 Feb 04:52:57 04:55:03 13° 88° (E) 04:57:11 437.250
LilacSat-2 27 Feb 05:06:46 05:08:06 11° 89° (E) 05:09:26 437.200
BEESAT 2 27 Feb 05:12:15 05:13:01 10° 108° (ESE) 05:13:48 435.950
CUTE-I 27 Feb 05:24:20 05:28:20 21° 91° (E) 05:32:19 437.470
SO-50 27 Feb 05:32:51 05:37:11 42° 46° (NE) 05:41:27 436.795
STRAND 1 27 Feb 05:38:52 05:43:24 32° 65° (ENE) 05:47:57 437.568
KAITUO 1B 27 Feb 05:52:22 05:55:43 29° 96° (E) 05:59:00 145.475/437.950
XW-2F 27 Feb 06:00:16 06:03:56 43° 98° (E) 06:07:32 145.980 - 146.000
BEESAT 3 27 Feb 06:03:27 06:07:22 84° 122° (ESE) 06:11:22 437.485
XW-2D 27 Feb 06:06:05 06:09:52 54° 100° (E) 06:13:34 145.860 - 145.880
AO-85 27 Feb 06:10:03 06:12:17 14° 328° (NNW) 06:14:29 145.980
XW-2B 27 Feb 06:11:10 06:14:58 60° 100° (E) 06:18:43 145.730 - 145.750
O/OREOS (USA 219) 27 Feb 06:14:18 06:16:33 13° 45° (NE) 06:18:49 437.305
XW-2C 27 Feb 06:19:53 06:23:44 78° 102° (ESE) 06:27:32 145.795 - 145.815
NUDT-PHONESAT 27 Feb 06:24:33 06:28:19 72° 101° (ESE) 06:32:03 437.300
AO-7 27 Feb 06:24:59 06:30:39 21° 315° (NW) 06:36:17 .
DOVE 4 27 Feb 06:28:30 06:33:14 83° 286° (WNW) 06:38:15 437.250
LilacSat-2 27 Feb 06:38:59 06:42:48 60° 285° (WNW) 06:46:33 437.200
BEESAT 2 27 Feb 06:46:10 06:50:08 85° 307° (NW) 06:54:10 435.950
ISS 27 Feb 06:49:17 06:51:50 21° 137° (SE) 06:54:23 437.550
HO-68 27 Feb 06:52:54 06:59:07 31° 94° (E) 07:05:16 435.675
CUBEBUG 2 27 Feb 06:54:21 06:56:17 12° 87° (E) 06:58:13 437.445
CUTE-I 27 Feb 07:03:28 07:08:47 60° 289° (WNW) 07:14:03 437.470
XW-2A 27 Feb 07:05:27 07:08:45 39° 99° (E) 07:12:00 145.665 - 145.685
SEEDS 27 Feb 07:07:19 07:10:28 20° 92° (E) 07:13:35 437.485
Tancredo 1 27 Feb 07:09:22 07:12:17 31° 141° (SE) 07:15:13 437.200
SO-50 27 Feb 07:13:40 07:17:27 27° 245° (WSW) 07:21:14 436.795
STRAND 1 27 Feb 07:17:46 07:22:29 37° 263° (W) 07:27:16 437.568
UWE-3 27 Feb 07:26:36 07:29:32 16° 89° (E) 07:32:26 435.000/436.395/437.385
KAITUO 1B 27 Feb 07:26:37 07:29:37 22° 293° (WNW) 07:32:34 145.475/437.950
XW-2F 27 Feb 07:35:17 07:37:45 17° 296° (WNW) 07:40:12 145.980 - 146.000
XW-2D 27 Feb 07:41:36 07:43:38 14° 298° (WNW) 07:45:39 145.860 - 145.880
BEESAT 3 27 Feb 07:42:58 07:45:31 16° 325° (NW) 07:48:06 437.485
ZACube-1 27 Feb 07:43:19 07:45:44 14° 88° (E) 07:48:07 437.345
XW-2B 27 Feb 07:46:56 07:48:42 13° 298° (WNW) 07:50:26 145.730 - 145.750
CUTE 1.7 + AOD 2 27 Feb 07:48:51 07:53:06 85° 104° (ESE) 07:57:18 437.475
O/OREOS (USA 219) 27 Feb 07:52:07 07:56:44 83° 66° (ENE) 08:01:19 437.305
PRISM 27 Feb 07:55:47 07:59:21 30° 67° (ENE) 08:02:55 437.425
XW-2C 27 Feb 07:56:39 07:57:20 10° 300° (WNW) 07:58:01 145.795 - 145.815
NUDT-PHONESAT 27 Feb 08:00:45 08:01:41 11° 299° (WNW) 08:02:38 437.300
FO-29 27 Feb 08:02:27 08:07:41 21° 52° (NE) 08:13:05 435.910
DOVE 4 27 Feb 08:08:27 08:10:16 12° 301° (WNW) 08:12:07 437.250
YUBILEINY 27 Feb 08:10:30 08:14:31 14° 72° (ENE) 08:18:30 435.215
ISS 27 Feb 08:24:44 08:28:01 70° 335° (NNW) 08:31:20 437.550
AAUSAT CUBESAT 2 27 Feb 08:25:07 08:29:14 71° 101° (E) 08:33:18 437.432
BEESAT 2 27 Feb 08:26:09 08:28:32 15° 326° (NNW) 08:30:58 435.950
CUBEBUG 2 27 Feb 08:28:43 08:33:31 83° 285° (WNW) 08:38:14 437.445
AO-73 27 Feb 08:29:12 08:33:25 36° 96° (E) 08:37:32 145.935
Oscar 11 27 Feb 08:33:19 08:37:17 34° 96° (E) 08:41:11 .
XW-2A 27 Feb 08:39:10 08:41:12 15° 296° (WNW) 08:43:14 145.665 - 145.685
HO-68 27 Feb 08:40:13 08:47:12 58° 293° (WNW) 08:54:10 435.675
SEEDS 27 Feb 08:42:25 08:46:18 38° 290° (WNW) 08:50:10 437.485
TIGRISAT 27 Feb 08:43:37 08:47:50 39° 68° (ENE) 08:52:08 435.000
UNISAT 6 27 Feb 08:43:54 08:48:10 42° 70° (ENE) 08:52:34 437.425
Tancredo 1 27 Feb 08:45:16 08:48:28 51° 340° (NNW) 08:51:39 437.200
CUTE-I 27 Feb 08:46:51 08:47:44 10° 309° (NW) 08:48:38 437.470
UWE-3 27 Feb 09:01:46 09:06:23 61° 287° (WNW) 09:10:55 435.000/436.395/437.385
ZACube-1 27 Feb 09:17:57 09:22:30 67° 286° (WNW) 09:26:56 437.345
EO-79 27 Feb 09:20:43 09:21:23 10° 57° (ENE) 09:22:04 145.935-145.965
CUTE 1.7 + AOD 2 27 Feb 09:26:55 09:28:17 11° 301° (WNW) 09:29:38 437.475
PRISM 27 Feb 09:31:14 09:34:38 25° 265° (W) 09:38:03 437.425
O/OREOS (USA 219) 27 Feb 09:33:54 09:35:25 11° 263° (W) 09:36:56 437.305
NANOSAT C BR1 27 Feb 09:34:46 09:36:50 13° 60° (ENE) 09:38:55 145.865
POLYITAN 1 27 Feb 09:36:54 09:39:23 15° 61° (ENE) 09:41:54 437.675
DELFI C3 27 Feb 09:38:44 09:42:36 55° 100° (E) 09:46:28 145.870
QB50P2 27 Feb 09:39:37 09:42:25 17° 62° (ENE) 09:45:12 145.880/145.840
FO-29 27 Feb 09:44:10 09:51:28 79° 73° (ENE) 09:59:21 435.910
AIST 2D 27 Feb 09:47:43 09:50:36 24° 68° (ENE) 09:53:30 435.315
YUBILEINY 27 Feb 10:00:50 10:09:32 68° 93° (E) 10:18:14 435.215
ISS 27 Feb 10:01:52 10:04:51 30° 355° (N) 10:07:50 437.550
AAUSAT CUBESAT 2 27 Feb 10:02:18 10:04:09 13° 300° (WNW) 10:05:59 437.432
AO-73 27 Feb 10:05:42 10:09:29 26° 294° (WNW) 10:13:12 145.935
CUBEBUG 2 27 Feb 10:07:30 10:09:20 12° 303° (WNW) 10:11:10 437.445
Oscar 11 27 Feb 10:09:42 10:13:17 26° 294° (WNW) 10:16:50 .
